Location: Pony
(45.6596°N, 111.8933°W)
Time: 01:51:24
(UTC+00:00)

ISS - Visible Passes

Search period start: 20 January 2022 00:00
Search period end: 30 January 2022 00:00
Orbit: 413 x 422 km, 51.6° (Epoch: 19 January)

Date Brightness Start Highest point End Pass type
(mag) Time Alt. Az. Time Alt. Az. Time Alt. Az.
20 Jan -3.4 01:45:28 10° SW 01:48:40 47° SE 01:49:26 38° ESE visible
20 Jan -0.2 03:22:20 10° W 03:22:23 10° W 03:22:23 10° W visible
21 Jan -2.6 00:57:57 10° SSW 01:00:53 29° SE 01:03:41 11° E visible
21 Jan -2.4 02:34:17 10° W 02:36:38 38° WNW 02:36:38 38° WNW visible
22 Jan -3.7 01:46:22 10° WSW 01:49:42 74° NNW 01:50:53 37° NE visible
23 Jan -3.7 00:58:38 10° SW 01:01:57 74° SSE 01:05:09 11° ENE visible
23 Jan -2.0 02:35:53 10° W 02:38:06 28° NW 02:38:06 28° NW visible
24 Jan -2.9 01:47:59 10° W 01:51:10 40° NNW 01:52:24 28° NNE visible
25 Jan -3.3 01:00:12 10° W 01:03:28 53° NNW 01:06:45 10° ENE visible
25 Jan -1.8 02:37:47 10° WNW 02:39:42 23° NW 02:39:42 23° NW visible
26 Jan -2.5 01:50:03 10° WNW 01:53:02 29° N 01:54:06 24° NNE visible
27 Jan -2.6 01:02:20 10° W 01:05:24 33° NNW 01:08:29 10° NE visible
27 Jan -1.7 02:39:47 10° NW 02:41:31 23° NNW 02:41:31 23° NNW visible
28 Jan -2.5 01:52:16 10° WNW 01:55:13 28° N 01:56:03 25° NNE visible
29 Jan -2.4 01:04:46 10° WNW 01:07:43 28° N 01:10:40 10° ENE visible
29 Jan -1.9 02:41:50 10° NW 02:43:40 27° NW 02:43:40 27° NW visible
